Location: Unspecified
(50.7693°N, 0.0000°E)
Time: 16:38:42
(UTC+00:00)

Transit 4A - Pass Details

Date: 26 June 2019
Orbit: 862 x 982 km, 66.8° (Epoch: 18 July)

Event Time Altitude Azimuth Distance (km) Brightness Sun altitude
Rises 15:03:11 0° 322° (NW) 3,697 11.2 45.8°
Reaches altitude 10° 15:05:49 10° 325° (NW) 2,742 10.6 45.4°
Maximum altitude 15:12:14 68° 48° (NE) 1,045 8.6 44.5°
Drops below altitude 10° 15:18:28 10° 132° (SE) 2,674 10.2 43.5°
Sets 15:21:00 0° 135° (SE) 3,599 10.8 43.2°
